{"data":{"norad_id":56039,"intl_designator":"2023-042BF","name":"STARLINK-5795","alt_names":[],"object_type":"PAYLOAD","status":"ACTIVE","operator":null,"country":"US","launch_date":"2023-03-24","launch_site_code":"AFETR","launch_vehicle":null,"mission":null,"orbit_class":"UNKNOWN","rcs_meters":null,"size_class":null,"mass_kg":null,"dimensions":null,"purposes":["comms"],"wikipedia_slug":null,"has_3d_model":false,"image_url":null,"decayed_at":null,"tle_current":{"epoch":"2026-09-20T13:39:16.614720Z","epoch_age_seconds":100221,"freshness":"FRESH","line1":"1 56039U 23042BF  26263.56894230  .00000024  00000+0  10405-4 0  9999","line2":"2 56039  43.0039  10.4057 0001798 270.2533  89.8112 15.27576625193006","mean_motion":15.27576625,"eccentricity":0.0001798,"inclination_deg":43.0039,"raan_deg":10.4057,"arg_perigee_deg":270.2533,"mean_anomaly_deg":89.8112,"bstar":1.0405e-5,"rev_number":19300,"period_min":94.266956984891,"perigee_km":481.82555894529,"apogee_km":484.29284509953,"semimajor_km":6861.1962020224,"source":"CELESTRAK","updated_at":"2026-09-21T09:00:33.360823Z"}}}